GHS-01 (65733 NORAD) Tracking and Keplerian Element Data

This shows tracking and keplerian element data for the satellite.

Feedback or suggestion? Click here.




ElementValue
Catalog65733
NameGHS-01
Epoch Orbit1428
Epoch Day353.72697634
Epoch Year2025
RAAN99.1864
Inclination51.6273
Eccentricity0.0008343
Argument of Perigee325.0318
Mean Anonmoly35.0134
Mean Motion15.77819432
Decay Rate0.00188446
L11 65733U 98067XM 25353.72697634 .00188446 00000+0 10728-2 0 9996
L22 65733 51.6273 99.1864 0008343 325.0318 35.0134 15.77819432 14285



Live tracking and technical data element details for GHS-01 (NORAD 65733). GHS-01 can be tracked NOW for your location showing map with azimuth and elevation plus other details from your city location.







IsCatalogInMostPopularTable: catalog: 65733, numindb: 31
Update: records affected: 1



GetName: 65733 GHS-01

Hit Count: updated at: Tue, 21 Apr 2026 20:03:26 GMT